Home > Weather > Braunschweig > Past weeks

Flag for Germany Past Weather in Braunschweig, Lower Saxony, Germany — Yesterday and Last 2 Weeks

Now
64 °F

Passing clouds.


Feels Like: 64 °F
Forecast: 51 / 74 °F
Wind: 5 mph from Southwest

Location: Celle Airport

Current Time: Aug 29, 2016 at 2:25:15 AM

Latest Report: Aug 29, 2016 at 1:20 AM


Visibility: N/A

Pressure: 29.95 "Hg

Humidity: 73%

Dew Point: 55 °F

Location of BraunschweigLocation

Past Weather in Braunschweig — Graph

°F

Braunschweig Temperature Yesterday

Maximum temperature yesterday: 91 °F (at 2:20 PM)
Minimum temperature yesterday: 66 °F (at 4:20 AM)
Average temperature yesterday: 76 °F

High & Low Weather Summary for the Past Weeks

 TemperatureHumidityPressure
High93 °F (Aug 26, 2:20 PM)100% (Aug 14, 6:20 AM)30.33 "Hg (Aug 14, 6:20 AM)
Low45 °F (Aug 16, 6:20 AM)23% (Aug 25, 5:20 PM)29.80 "Hg (Aug 18, 3:20 PM)
Average67 °F70%30.06 "Hg
* Reported Aug 14 12:20 AM — Aug 29 12:20 AM, Braunschweig, Weather by CustomWeather, © 2016

Note: Actual official high and low records may vary slightly from our data, if they occured in-between our weather recording intervals... More about our weather records

Advertising

Braunschweig Weather History for the Previous 24 Hours

Scroll right to see more
 ConditionsComfort  
Time TempWeatherWind HumidityBarometerVisibility
12:20 AM
Mon, Aug 29
66 °FPassing clouds.2 mph78%29.95 "HgN/A
11:20 PM
Sun, Aug 28
68 °FPassing clouds.3 mph73%29.95 "HgN/A
10:20 PM70 °FPassing clouds.9 mph73%29.95 "HgN/A
9:20 PM72 °FPartly cloudy.3 mph83%29.92 "HgN/A
8:20 PM72 °FThundershowers. Scattered clouds.8 mph78%29.89 "HgN/A
7:20 PM81 °FThunderstorms. Broken clouds.9 mph51%29.86 "Hg5 mi
6:52 PM81 °FThundershowers. Broken clouds.6 mph54%29.83 "HgN/A
6:20 PM81 °FScattered showers. Partly sunny.9 mph58%29.83 "HgN/A
5:20 PM90 °FPartly sunny.9 mph36%29.80 "HgN/A
4:20 PM91 °FScattered showers. Broken clouds.6 mph32%29.80 "HgN/A
3:20 PM91 °FScattered clouds.14 mph30%29.80 "HgN/A
2:20 PM91 °FScattered clouds.8 mph34%29.83 "HgN/A
1:20 PM90 °FPartly sunny.8 mph36%29.86 "HgN/A
12:20 PM86 °FPartly sunny.5 mph43%29.89 "HgN/A
11:20 AM79 °FPartly sunny.7 mph54%29.89 "HgN/A
10:20 AM75 °FPartly sunny.8 mph61%29.92 "HgN/A
9:20 AM72 °FPartly sunny.7 mph69%29.92 "HgN/A
8:20 AM68 °FScattered clouds.8 mph78%29.92 "HgN/A
7:20 AM68 °FPassing clouds.6 mph78%29.92 "HgN/A
6:20 AM66 °FPartly cloudy.5 mph83%29.92 "HgN/A
5:20 AM66 °FPassing clouds.5 mph83%29.95 "HgN/A
4:20 AM66 °FPassing clouds.5 mph83%29.92 "HgN/A
3:20 AM68 °FPassing clouds.5 mph78%29.92 "HgN/A
Weather by CustomWeather, © 2016

See weather overviewHow to use our weather pages